EW9592 Weather Reports


time (UTC)temp
C
wind
direction
speed
KPH
gust
KPH
rain 1hr
cm
rain 24hr
cm
rain mn
cm
humidity
%
barometer
mb
20260904034554 24 155 0.0 0.0 0.00 0.00 0.00 91 1015.7
20260904033053 24 155 0.0 0.0 0.00 0.00 0.00 91 1015.8
20260904031550 25 155 0.0 0.0 0.00 0.00 0.00 91 1015.8
20260904030055 25 155 0.0 0.0 0.00 0.00 0.00 91 1015.8
20260904024553 25 155 0.0 0.0 0.00 0.00 0.00 90 1015.9
20260904023057 25 155 0.0 0.0 0.00 0.00 0.00 90 1015.8
20260904021547 25 155 0.0 0.0 0.00 0.00 0.00 90 1015.9
20260904020052 25 155 0.0 0.0 0.00 0.00 0.00 90 1015.9
20260904014558 25 155 0.0 0.0 0.00 0.00 0.00 90 1015.8
20260904013049 25 155 0.0 0.0 0.00 0.00 0.00 89 1015.6
20260904011547 26 155 0.0 0.0 0.00 0.00 0.00 89 1015.6
20260904010051 26 155 0.0 0.0 0.00 0.00 0.00 89 1015.5
20260904004548 26 155 0.0 0.0 0.00 0.00 0.00 89 1015.2
20260904003044 27 155 0.0 0.0 0.00 0.00 0.00 88 1015.0
20260904001645 27 155 0.0 0.0 0.00 0.00 0.00 88 1014.8
20260904000044 28 155 0.0 0.0 0.00 0.00 0.00 88 1014.7
20260903234543 28 155 0.0 0.0 0.00 0.00 0.00 87 1014.6
20260903233046 28 154 0.0 0.0 0.00 0.00 0.00 86 1014.5
20260903231548 29 153 0.0 0.0 0.00 0.00 0.00 84 1014.4
20260903230043 30 153 0.0 0.0 0.00 0.00 0.00 84 1014.4
20260903224559 30 153 0.0 0.0 0.00 0.00 0.00 82 1014.4
20260903223040 31 153 0.0 0.0 0.00 0.00 0.00 80 1014.4
20260903221540 31 154 0.0 0.0 0.00 0.00 0.00 76 1014.5
20260903220045 32 153 0.0 0.0 0.00 0.00 0.00 74 1014.4
20260903214550 32 153 0.0 0.0 0.00 0.00 0.00 75 1014.5
20260903213040 32 128 0.0 1.6 0.00 0.00 0.00 73 1014.6
20260903211540 32 127 0.0 0.0 0.00 0.00 0.00 76 1014.6
20260903210045 31 103 0.0 0.0 0.00 0.00 0.00 76 1014.7
20260903204542 32 104 0.0 0.0 0.00 0.00 0.00 74 1014.9
20260903203031 32 105 0.0 0.0 0.00 0.00 0.00 78 1015.1
20260903201532 32 104 0.0 0.0 0.00 0.00 0.00 76 1015.2
20260903200031 31 105 0.0 0.0 0.00 0.00 0.00 75 1015.4
20260903194528 32 104 0.0 0.0 0.00 0.00 0.00 73 1015.5
20260903193026 32 105 0.0 1.6 0.00 0.00 0.00 72 1015.6
20260903191531 33 133 0.0 1.6 0.00 0.00 0.00 67 1015.7
20260903190022 33 153 0.0 1.6 0.00 0.00 0.00 62 1015.9
20260903184521 33 18 0.0 3.2 0.00 0.00 0.00 59 1016.0
20260903183018 33 112 0.0 3.2 0.00 0.00 0.00 61 1016.1
20260903181515 33 51 0.0 1.6 0.00 0.00 0.00 64 1016.3
20260903180014 33 4 0.0 1.6 0.00 0.00 0.00 67 1016.4
20260903174512 32 350 0.0 1.6 0.00 0.00 0.00 63 1016.5
20260903173010 32 305 0.0 1.6 0.00 0.00 0.00 67 1016.7
20260903171509 33 13 0.0 3.2 0.00 0.00 0.00 62 1016.8
20260903170009 33 63 0.0 3.2 0.00 0.00 0.00 60 1016.9
20260903164508 33 351 0.0 3.2 0.00 0.00 0.00 59 1017.1
20260903163005 33 11 0.0 1.6 0.00 0.00 0.00 61 1017.2
20260903161503 33 327 0.0 4.8 0.00 0.00 0.00 67 1017.3
20260903160128 32 131 0.0 3.2 0.00 0.00 0.00 72 1017.3
20260903154607 31 8 0.0 3.2 0.00 0.00 0.00 73 1017.3
20260903153054 30 129 0.0 1.6 0.00 0.00 0.00 81 1017.4
20260903151547 29 129 0.0 1.6 0.00 0.00 0.00 83 1017.3
20260903150044 28 115 0.0 1.6 0.00 0.00 0.00 84 1017.4
20260903144539 27 174 0.0 1.6 0.00 0.00 0.00 90 1017.4
20260903143043 26 174 0.0 0.0 0.00 0.00 0.00 91 1017.4
20260903141530 25 174 0.0 0.0 0.00 0.00 0.00 91 1017.5
20260903140026 25 174 0.0 0.0 0.00 0.00 0.00 92 1017.5
20260903134523 24 174 0.0 0.0 0.00 0.00 0.00 92 1017.6
20260903133022 23 174 0.0 0.0 0.00 0.00 0.00 92 1017.8
20260903131520 23 174 0.0 0.0 0.00 0.00 0.00 92 1018.0
20260903130020 22 174 0.0 0.0 0.00 0.00 0.00 92 1018.0
20260903124521 22 175 0.0 0.0 0.00 0.00 0.00 92 1018.1
20260903123024 21 174 0.0 0.0 0.00 0.00 0.00 92 1018.0
20260903121518 21 174 0.0 0.0 0.00 0.00 0.00 92 1017.9
20260903120018 21 175 0.0 0.0 0.00 0.00 0.00 92 1017.8
20260903114517 21 174 0.0 0.0 0.00 0.00 0.00 92 1017.9
20260903113014 21 174 0.0 0.0 0.00 0.00 0.00 92 1017.8
20260903111514 21 174 0.0 0.0 0.00 0.00 0.00 92 1017.7
20260903110015 21 174 0.0 0.0 0.00 0.00 0.00 92 1017.5
20260903104511 21 174 0.0 0.0 0.00 0.00 0.00 92 1017.4
20260903103010 21 174 0.0 0.0 0.00 0.00 0.00 92 1017.2
20260903101508 21 175 0.0 0.0 0.00 0.00 0.00 92 1017.3
20260903100008 21 174 0.0 0.0 0.00 0.00 0.00 92 1017.3
20260903094507 21 174 0.0 0.0 0.00 0.00 0.00 92 1017.3
20260903093006 22 174 0.0 0.0 0.00 0.00 0.00 92 1017.2
20260903091504 22 174 0.0 0.0 0.00 0.00 0.00 91 1017.2
20260903090004 22 174 0.0 0.0 0.00 0.00 0.00 91 1017.1
20260903084503 22 174 0.0 0.0 0.00 0.00 0.00 91 1016.9
20260903083100 22 174 0.0 0.0 0.00 0.00 0.00 91 1016.9
20260903081600 22 174 0.0 0.0 0.00 0.00 0.00 91 1016.8
20260903080058 22 174 0.0 0.0 0.00 0.00 0.00 91 1016.7
20260903074558 22 174 0.0 0.0 0.00 0.00 0.00 91 1016.7
20260903073056 22 174 0.0 0.0 0.00 0.00 0.00 91 1016.7
20260903071556 22 174 0.0 0.0 0.00 0.00 0.00 91 1016.6
20260903070058 22 174 0.0 0.0 0.00 0.00 0.00 91 1016.5
20260903064553 22 174 0.0 0.0 0.00 0.00 0.00 91 1016.5
20260903063114 22 174 0.0 0.0 0.00 0.00 0.00 91 1016.6
20260903061551 22 174 0.0 0.0 0.00 0.00 0.00 91 1016.6
20260903060050 23 174 0.0 0.0 0.00 0.00 0.00 91 1016.6
20260903054549 23 174 0.0 0.0 0.00 0.00 0.00 91 1016.6
20260903053047 23 174 0.0 0.0 0.00 0.00 0.00 91 1016.6
20260903051548 23 174 0.0 0.0 0.00 0.00 0.00 91 1016.6
20260903050106 23 174 0.0 0.0 0.00 0.00 0.00 91 1016.5
20260903044543 23 174 0.0 0.0 0.00 0.00 0.00 91 1016.5
20260903043043 23 174 0.0 0.0 0.00 0.00 0.00 91 1016.5
20260903041540 23 174 0.0 0.0 0.00 0.00 0.00 91 1016.6
20260903040038 23 174 0.0 0.0 0.00 0.00 0.00 91 1016.5